| time (UTC) | temp F | wind direction | speed MPH | gust MPH | rain 1hr in | rain 24hr in | rain mn in | humidity % | barometer mb |
| 20260902063926 | 86 | 151 | 0.0 | 3.0 | 0.00 | 0.00 | 0.00 | ||
| 20260902060927 | 85 | 184 | 2.0 | 4.0 | 0.00 | 0.00 | 0.00 | ||
| 20260902054927 | 86 | 155 | 0.0 | 4.0 | 0.00 | 0.00 | 0.00 | ||
| 20260902045426 | 88 | 211 | 0.0 | 8.0 | 0.00 | 0.00 | 0.00 | ||
| 20260902040426 | 90 | 120 | 1.0 | 1.0 | 0.00 | 0.00 | 0.00 | ||
| 20260902015427 | 92 | 59 | 0.0 | 0.0 | 0.00 | 0.00 | 0.00 | ||
| 20260902012427 | 94 | 68 | 2.0 | 0.0 | 0.00 | 0.00 | 0.00 | ||
| 20260902011927 | 94 | 137 | 0.0 | 4.0 | 0.00 | 0.00 | 0.00 | ||
| 20260902011427 | 94 | 101 | 0.0 | 3.0 | 0.00 | 0.00 | 0.00 | ||
| 20260902005927 | 94 | 128 | 0.0 | 0.0 | 0.00 | 0.00 | 0.00 | ||
| 20260902005427 | 94 | 128 | 1.0 | 1.0 | 0.00 | 0.00 | 0.00 | ||
| 20260902004927 | 95 | 103 | 0.0 | 1.0 | 0.00 | 0.00 | 0.00 | ||
| 20260902004427 | 95 | 92 | 1.0 | 3.0 | 0.00 | 0.00 | 0.00 | ||
| 20260902003427 | 96 | 45 | 2.0 | 3.0 | 0.00 | 0.00 | 0.00 | ||
| 20260902002927 | 96 | 4 | 1.0 | 0.0 | 0.00 | 0.00 | 0.00 | ||
| 20260902002427 | 96 | 24 | 0.0 | 0.0 | 0.00 | 0.00 | 0.00 | ||
| 20260902001427 | 97 | 114 | 1.0 | 5.0 | 0.00 | 0.00 | 0.00 | ||
| 20260902000927 | 97 | 62 | 0.0 | 2.0 | 0.00 | 0.00 | 0.00 | ||
| 20260902000429 | 97 | 93 | 2.0 | 3.0 | 0.00 | 0.00 | 0.00 | ||
| 20260901235927 | 99 | 84 | 2.0 | 4.0 | 0.00 | 0.00 | 0.00 | ||
| 20260901235427 | 98 | 28 | 1.0 | 3.0 | 0.00 | 0.00 | 0.00 | ||
| 20260901234427 | 99 | 44 | 3.0 | 3.0 | 0.00 | 0.00 | 0.00 | ||
| 20260901233427 | 100 | 25 | 5.0 | 6.0 | 0.00 | 0.00 | 0.00 | ||
| 20260901231927 | 102 | 66 | 3.0 | 3.0 | 0.00 | 0.00 | 0.00 | ||
| 20260901230927 | 101 | 118 | 3.0 | 3.0 | 0.00 | 0.00 | 0.00 | ||
| 20260901230427 | 101 | 201 | 1.0 | 2.0 | 0.00 | 0.00 | 0.00 | ||
| 20260901225927 | 101 | 156 | 2.0 | 4.0 | 0.00 | 0.00 | 0.00 | ||
| 20260901224927 | 101 | 82 | 2.0 | 7.0 | 0.00 | 0.00 | 0.00 | ||
| 20260901224427 | 100 | 100 | 1.0 | 2.0 | 0.00 | 0.00 | 0.00 | ||
| 20260901223427 | 99 | 239 | 0.0 | 1.0 | 0.00 | 0.00 | 0.00 | ||
| 20260901222928 | 100 | 186 | 1.0 | 4.0 | 0.00 | 0.00 | 0.00 | ||
| 20260901221431 | 99 | 21 | 2.0 | 5.0 | 0.00 | 0.00 | 0.00 | ||
| 20260901220428 | 100 | 166 | 2.0 | 3.0 | 0.00 | 0.00 | 0.00 | ||
| 20260901215430 | 100 | 197 | 2.0 | 1.0 | 0.00 | 0.00 | 0.00 | ||
| 20260901214930 | 100 | 69 | 1.0 | 2.0 | 0.00 | 0.00 | 0.00 | ||
| 20260901213428 | 103 | 146 | 4.0 | 5.0 | 0.00 | 0.00 | 0.00 | ||
| 20260901212928 | 103 | 141 | 3.0 | 10.0 | 0.00 | 0.00 | 0.00 | ||
| 20260901211428 | 103 | 42 | 3.0 | 4.0 | 0.00 | 0.00 | 0.00 | ||
| 20260901205928 | 101 | 193 | 3.0 | 4.0 | 0.00 | 0.00 | 0.00 | ||
| 20260901205428 | 101 | 160 | 4.0 | 5.0 | 0.00 | 0.00 | 0.00 | ||
| 20260901204928 | 105 | 158 | 2.0 | 5.0 | 0.00 | 0.00 | 0.00 | ||
| 20260901204428 | 106 | 3 | 2.0 | 7.0 | 0.00 | 0.00 | 0.00 | ||
| 20260901203928 | 104 | 10 | 1.0 | 6.0 | 0.00 | 0.00 | 0.00 | ||
| 20260901203428 | 103 | 15 | 4.0 | 6.0 | 0.00 | 0.00 | 0.00 | ||
| 20260901202428 | 103 | 237 | 2.0 | 8.0 | 0.00 | 0.00 | 0.00 | ||
| 20260901201928 | 102 | 224 | 2.0 | 3.0 | 0.00 | 0.00 | 0.00 | ||
| 20260901201428 | 101 | 201 | 3.0 | 5.0 | 0.00 | 0.00 | 0.00 | ||
| 20260901195428 | 101 | 141 | 1.0 | 3.0 | 0.00 | 0.00 | 0.00 | ||
| 20260901194428 | 101 | 65 | 3.0 | 1.0 | 0.00 | 0.00 | 0.00 | ||
| 20260901193928 | 100 | 79 | 2.0 | 7.0 | 0.00 | 0.00 | 0.00 | ||
| 20260901193428 | 97 | 224 | 3.0 | 3.0 | 0.00 | 0.00 | 0.00 | ||
| 20260901192928 | 102 | 148 | 4.0 | 8.0 | 0.00 | 0.00 | 0.00 | ||
| 20260901191428 | 104 | 141 | 4.0 | 4.0 | 0.00 | 0.00 | 0.00 | ||
| 20260901174428 | 99 | 156 | 2.0 | 5.0 | 0.00 | 0.00 | 0.00 | ||
| 20260901173929 | 101 | 170 | 4.0 | 6.0 | 0.00 | 0.00 | 0.00 | ||
| 20260901173429 | 101 | 189 | 2.0 | 4.0 | 0.00 | 0.00 | 0.00 | ||
| 20260901163931 | 97 | 197 | 2.0 | 4.0 | 0.00 | 0.00 | 0.00 | ||
| 20260901163430 | 97 | 251 | 2.0 | 4.0 | 0.00 | 0.00 | 0.00 | ||
| 20260901162929 | 98 | 20 | 0.0 | 0.0 | 0.00 | 0.00 | 0.00 | ||
| 20260901162429 | 95 | 127 | 2.0 | 2.0 | 0.00 | 0.00 | 0.00 | ||
| 20260901160929 | 95 | 86 | 1.0 | 4.0 | 0.00 | 0.00 | 0.00 | ||
| 20260901155429 | 94 | 211 | 1.0 | 3.0 | 0.00 | 0.00 | 0.00 | ||
| 20260901154929 | 94 | 279 | 2.0 | 1.0 | 0.00 | 0.00 | 0.00 | ||
| 20260901154429 | 94 | 239 | 3.0 | 7.0 | 0.00 | 0.00 | 0.00 | ||
| 20260901144929 | 89 | 83 | 1.0 | 4.0 | 0.00 | 0.00 | 0.00 | ||
| 20260901123432 | 78 | 146 | 1.0 | 1.0 | 0.00 | 0.00 | 0.00 | ||
| 20260901121930 | 78 | 220 | 0.0 | 0.0 | 0.00 | 0.00 | 0.00 | ||
| 20260901120430 | 78 | 220 | 0.0 | 0.0 | 0.00 | 0.00 | 0.00 | ||
| 20260901114930 | 78 | 220 | 0.0 | 0.0 | 0.00 | 0.00 | 0.00 | ||
| 20260901112930 | 78 | 220 | 0.0 | 0.0 | 0.00 | 0.00 | 0.00 | ||
| 20260901112431 | 78 | 220 | 0.0 | 0.0 | 0.00 | 0.00 | 0.00 | ||
| 20260901110431 | 79 | 220 | 0.0 | 0.0 | 0.00 | 0.00 | 0.00 | ||
| 20260901105931 | 79 | 220 | 0.0 | 0.0 | 0.00 | 0.00 | 0.00 | ||
| 20260901104931 | 79 | 220 | 0.0 | 0.0 | 0.00 | 0.00 | 0.00 | ||
| 20260901103931 | 79 | 220 | 0.0 | 0.0 | 0.00 | 0.00 | 0.00 | ||
| 20260901101931 | 80 | 220 | 0.0 | 0.0 | 0.00 | 0.00 | 0.00 |